COSMOS 1275 DEB, 12665

Orbit data source: Space-Track

COSMOS 1275 DEB, 12665 is space debris in LEO originally from a launch on Thu, 04 Jun 1981 UTC launched from the Plesetsk Missile And Space Complex (PKMTR). Debris objects in space refer to the collection of defunct objects orbiting the Earth. Examples of debris include non-operational satellites, rocket bodies, and fragments generated from explosions, collisions, or faulty payload assembly.

Loading next visibility...
Identifier
12665, 1981-053V
Orbit
LEO
Country
Flag of CISCIS
Related business
Manufacturer
Unknown
Mission
Spacecraft
Bus & Motor
Unknown
Mass
Unknown
Launch date (UTC)
1981-06-04 (45 years ago)
Launch vehicle
Unknown
Launch site
Plesetsk Missile And Space Complex (PKMTR)
Object type
Payload
Rocket body
Debris
Shape & HBR
Unknown shape, 0.1 m
Radar Cross Section
Medium (>0.1 m² and <1 m²)

Expand to show TLE details & history
Last TLE update: 2 days ago

TLE from 2 days ago
0 COSMOS 1275 DEB
1 12665U 81053V   26171.46062417  .00000251  00000-0  21125-3 0  9996
2 12665  82.9663 174.8721 0036265 132.9708  19.3859 13.83722387259777
Epoch: 2026-06-20T11:03Z
TLE epoch observation values (Epoch: 2026-06-20T11:03:17.928Z)
Latitude
27.3194°
Longitude
-83.2626°
Altitude
928.995 km
Speed
7.402 km/s
True Right ascension
23h 24m 56s
True Declination
27° 10' 58"
Sunlit
Object was in daylight at epoch
Visualization orbit readout
Latitude
Unknown
Longitude
Unknown
Altitude
Unknown
Speed
Unknown
Apparent Right ascension
Unknown
Apparent Declination
Unknown
Sunlit
N/A
Visualization observer readout
Local Sidereal Time
11:19:52
Azimuth
Unknown
Elevation
Unknown
Doppler factor
Unknown
Orbital elements
Apogee altitude
974.417 km
Perigee altitude
921.282 km
Semi-major axis
7,325.986 km
Eccentricity
0.00363
Inclination
82.9663°
RAAN
174.8721°
Arg. of periapsis
132.9708°
True anomaly
19.52443°
Mean anomaly
19.3859°
Eccentric anomaly
19.45511°
Mean motion
3.46134 °/min
Orbital period
104.01 mins
BSTAR
0.00021125
Loading maneuver chart data...
Computing Atmospheric mass density...
Loading historical data...
Loading historical data...
Loading historical data...
Loading historical data...
Loading historical data...
Loading historical data...
Loading historical data...

Documentation

Showing up to 5 results
|